TimeMST,TemperatureF,Dew PointF,Humidity,Sea Level PressureIn,VisibilityMPH,Wind Direction,Wind SpeedMPH,Gust SpeedMPH,PrecipitationIn,Events,Conditions,WindDirDegrees,DateUTC
12:53 AM,26.1,15.1,63,30.22,10.0,West,6.9,-,N/A,,Clear,270,2012-11-04 06:53:00
1:53 AM,24.1,15.1,69,30.23,10.0,West,6.9,-,N/A,,Clear,270,2012-11-04 07:53:00
1:53 AM,23.0,15.1,72,30.23,10.0,West,6.9,-,N/A,,Clear,270,2012-11-04 08:53:00
2:53 AM,23.0,15.1,72,30.23,10.0,West,6.9,-,N/A,,Clear,260,2012-11-04 09:53:00
3:53 AM,23.0,15.1,72,30.23,10.0,West,10.4,-,N/A,,Clear,280,2012-11-04 10:53:00
4:53 AM,21.9,14.0,72,30.24,10.0,NW,4.6,-,N/A,,Clear,320,2012-11-04 11:53:00
5:53 AM,19.9,14.0,78,30.32,10.0,SW,4.6,-,N/A,,Clear,230,2012-11-04 12:53:00
6:53 AM,19.0,12.9,77,30.34,10.0,West,5.8,-,N/A,,Clear,260,2012-11-04 13:53:00
7:53 AM,28.0,17.1,63,30.35,10.0,West,5.8,-,N/A,,Clear,270,2012-11-04 14:53:00
8:53 AM,44.1,15.1,31,30.31,10.0,NNW,8.1,-,N/A,,Clear,330,2012-11-04 15:53:00
9:53 AM,50.0,15.1,25,30.30,10.0,ENE,5.8,-,N/A,,Clear,60,2012-11-04 16:53:00
10:53 AM,55.0,19.0,24,30.28,10.0,ENE,6.9,-,N/A,,Clear,70,2012-11-04 17:53:00
11:53 AM,57.9,21.9,25,30.26,10.0,ENE,6.9,-,N/A,,Clear,60,2012-11-04 18:53:00
12:53 PM,59.0,23.0,25,30.25,10.0,NE,5.8,-,N/A,,Clear,40,2012-11-04 19:53:00
1:53 PM,61.0,23.0,23,30.24,10.0,Calm,Calm,-,N/A,,Clear,0,2012-11-04 20:53:00
2:53 PM,60.1,23.0,24,30.23,10.0,NW,9.2,-,N/A,,Clear,310,2012-11-04 21:53:00
3:53 PM,61.0,21.0,21,30.24,10.0,North,10.4,-,N/A,,Clear,10,2012-11-04 22:53:00
4:53 PM,55.9,23.0,28,30.28,10.0,NW,8.1,-,N/A,,Clear,310,2012-11-04 23:53:00
5:53 PM,50.0,23.0,35,30.33,10.0,NNW,4.6,-,N/A,,Clear,340,2012-11-05 00:53:00
6:53 PM,45.0,21.9,40,30.39,10.0,NE,8.1,-,N/A,,Clear,40,2012-11-05 01:53:00
7:53 PM,39.9,21.9,49,30.37,10.0,NNW,9.2,-,N/A,,Clear,340,2012-11-05 02:53:00
8:53 PM,43.0,23.0,45,30.29,10.0,Calm,Calm,-,N/A,,Clear,0,2012-11-05 03:53:00
10:53 PM,28.9,19.9,69,30.32,10.0,West,3.5,-,N/A,,Clear,260,2012-11-05 05:53:00